Location: Julian California
(33.0790°N, 116.6010°W)
Time: 13:23:12
(UTC-08:00)

Lacrosse 5 - Pass Details

Date: 14 June 2018
Orbit: 713 x 726 km, 57.0° (Epoch: 15 November)

Event Time Altitude Azimuth Distance (km) Brightness Sun altitude
Exits shadow 23:40:46 40° 311° (NW) 1,053 3.0 -31.5°
Maximum altitude 23:40:52 40° 314° (NW) 1,052 3.0 -31.5°
Drops below altitude 10° 23:45:38 10° 24° (NNE) 2,201 4.9 -31.8°
Sets 23:48:09 0° 32° (NNE) 3,121 5.7 -31.9°
